Location: Unspecified
(0.0000°N, 0.0000°E)
Time: 18:47:48
(UTC+00:00)

Vanguard 3 - Pass Details

Date: 28 November 2019
Orbit: 508 x 3263 km, 33.3° (Epoch: 06 December)

Event Time Altitude Azimuth Distance (km) Brightness Sun altitude
Rises 16:44:16 0° 317° (NW) 7,222 12.3 14.8°
Reaches altitude 10° 16:50:09 10° 325° (NW) 6,120 11.8 13.4°
Maximum altitude 17:06:22 35° 24° (NNE) 3,641 10.2 9.7°
Drops below altitude 10° 17:17:34 10° 86° (E) 4,297 10.3 7.1°
Sets 17:20:47 0° 95° (E) 4,935 10.6 6.3°
